CAPE
0 1 0 0 0 0 0 0 0 0 0 0 0 0 0 0 0 0 0 0 0 0 0 0 0 0 0 0 2 2 0 0 2 9 21 106 48 6 0 0 0 0 0 0 0
0 0 0 0 0 0 0 0 0 0 0 0 0 0 0 0 0 0 0 0 0 0 0 0 0 0 0 0 64 20 0 0 0 7 77 112 63 11 8 0 0 0 0 0 0
1 0 0 0 0 0 0 0 0 0 0 0 0 0 0 0 0 0 0 0 0 0 0 0 0 0 0 0 4 0 33 0 26 61 74 91 59 24 9 0 0 0 0 0 0
1 0 0 0 0 0 0 0 0 0 0 0 0 0 0 0 0 0 0 0 0 0 0 0 0 0 0 0 13 2 322 0 17 38 55 70 134 68 16 3 0 0 0 0 0
0 0 0 0 0 0 0 0 0 0 0 0 0 0 0 0 0 0 0 0 0 0 0 0 0 0 0 0 1 2 418 371 133 14 26 50 106 116 24 17 5 0 0 0 0
0 0 0 0 0 0 0 0 0 0 0 0 0 0 0 0 0 0 0 0 0 0 0 0 0 0 0 0 1 288 398 182 415 175 84 63 141 79 67 29 13 0 0 0 18
0 0 0 0 0 0 0 0 0 0 0 0 0 0 0 0 0 0 0 0 0 0 0 0 0 0 0 0 417 511 437 317 348 120 22 140 101 116 55 31 18 2 0 0 19
0 0 0 0 0 0 0 0 0 0 0 0 0 0 0 0 0 0 0 0 0 0 0 0 0 0 0 546 714 490 452 292 276 205 67 65 105 131 63 35 38 36 24 14 33
0 0 0 0 0 0 0 0 0 0 0 0 0 0 0 0 0 0 0 0 0 0 0 0 0 0 0 104 339 544 284 284 329 109 263 66 57 8 165 31 41 49 49 46 44
0 0 0 0 0 0 0 0 0 0 0 0 0 0 0 0 0 0 0 0 0 0 0 0 0 0 0 0 2 164 318 289 339 245 322 151 60 50 277 57 17 55 44 53 55
0 0 0 0 0 0 0 0 0 0 0 0 0 0 0 0 0 0 0 0 0 0 0 0 0 0 0 0 0 0 110 102 110 0 93 285 154 50 282 118 29 57 38 63 45
0 0 0 0 0 0 0 0 0 0 0 0 0 0 0 0 0 0 0 0 0 0 0 0 0 0 0 0 0 0 0 0 0 175 188 368 290 403 161 263 158 76 58 57 47
0 0 0 0 0 0 0 0 0 0 0 0 0 0 0 0 0 0 0 0 0 0 0 0 0 0 0 0 0 0 0 0 0 0 359 496 238 303 470 262 208 178 128 102 84
0 0 0 0 0 0 0 0 0 0 0 0 0 0 0 0 0 0 0 0 0 0 0 0 0 0 0 0 0 0 0 0 0 0 8 489 14 7 84 340 337 197 161 206 147
0 0 0 0 0 0 0 0 0 0 0 0 0 0 0 0 0 0 0 0 0 0 0 0 0 0 0 0 0 0 0 0 0 4 189 226 80 19 2 27 69 275 169 137 193
0 0 0 0 0 0 0 0 0 0 0 0 0 0 0 0 0 0 0 0 0 0 0 0 0 0 0 0 0 0 0 22 41 129 69 89 78 0 1 22 43 195 254 92 147
0 0 0 0 0 0 0 0 0 0 0 0 0 0 0 0 0 0 0 0 0 0 0 0 0 0 0 0 0 0 0 44 42 20 9 0 3 0 6 78 141 460 564 294 98
0 0 0 0 0 0 0 0 0 0 0 0 0 0 0 0 0 0 0 0 0 0 0 0 0 0 0 0 0 0 0 1 1 2 1 0 0 0 104 348 929 682 676 543 228
0 0 0 0 0 0 0 0 0 0 0 0 0 0 0 0 0 0 0 0 0 0 0 0 0 0 0 0 0 0 0 0 0 0 0 0 0 20 164 309 689 812 600 376 342
0 0 0 0 0 0 0 0 0 0 0 0 0 0 0 0 0 0 0 0 0 0 0 0 0 0 0 0 0 0 0 0 0 0 0 0 0 0 264 182 250 453 612 678 472
0 0 0 0 0 0 0 0 0 0 0 0 0 0 0 0 0 0 0 0 0 0 0 0 0 0 0 0 0 0 0 0 0 0 0 0 0 0 228 100 51 162 457 635 668
0 0 0 0 0 0 0 0 0 0 0 0 0 0 0 0 0 0 0 0 0 0 0 0 0 0 0 0 0 0 0 0 0 0 0 0 0 0 107 71 107 146 300 623 435
0 0 0 0 0 0 0 0 0 0 0 0 0 0 0 0 0 0 0 0 0 0 0 0 0 0 0 0 0 0 0 0 0 0 0 0 0 0 39 73 182 158 251 531 616
0 0 0 0 0 0 0 0 0 0 0 0 0 0 0 0 0 0 0 0 0 0 0 0 0 0 0 0 0 0 0 0 0 0 0 0 0 0 77 136 190 131 314 236 570
0 0 0 0 0 0 0 0 0 0 0 0 0 0 0 0 0 0 0 0 0 0 0 0 0 0 0 0 0 0 0 0 0 0 0 0 0 0 28 193 229 250 389 334 418
0 0 0 0 0 0 0 0 0 0 0 0 0 0 0 0 0 0 0 0 0 0 0 0 0 0 0 0 0 0 0 0 0 0 0 0 0 0 0 110 163 409 442 473 416
0 0 0 0 0 0 0 0 0 0 0 0 0 0 0 0 0 0 0 0 0 0 0 0 0 0 0 0 0 0 0 0 0 0 0 0 0 0 3 7 11 67 290 492 571
CIN
0 0 0 0 0 0 0 0 0 0 0 0 0 0 0 0 0 0 0 0 0 0 0 0 0 0 0 0 -65 -139 0 0 -35 -52 -51 -56 -55 -82 0 0 0 0 0 0 0
0 0 0 0 0 0 0 0 0 0 0 0 0 0 0 0 0 0 0 0 0 0 0 0 0 0 0 0 -122 -126 0 0 0 -110 -56 -62 -56 -90 -62 0 0 0 0 0 0
0 0 0 0 0 0 0 0 0 0 0 0 0 0 0 0 0 0 0 0 0 0 0 0 0 0 0 0 -79 -20 -39 0 -83 -71 -69 -54 -67 -83 -68 -8 0 0 0 0 0
0 0 0 0 0 0 0 0 0 0 0 0 0 0 0 0 0 0 0 0 0 0 0 0 0 0 0 0 -97 -51 -68 0 -53 -66 -47 -33 -38 -59 -75 -28 -7 0 0 0 0
0 0 0 0 0 0 0 0 0 0 0 0 0 0 0 0 0 0 0 0 0 0 0 0 0 0 0 0 -29 -42 -49 -72 -81 -50 -40 -46 -34 -31 -71 -98 -102 0 0 0 0
0 0 0 0 0 0 0 0 0 0 0 0 0 0 0 0 0 0 0 0 0 0 0 0 0 0 0 0 -21 -91 -62 -75 -53 -49 -49 -50 -51 -58 -95 -133 -116 0 0 0 -85
0 0 0 0 0 0 0 0 0 0 0 0 0 0 0 0 0 0 0 0 0 0 0 0 0 0 0 0 -98 -72 -38 -52 -50 -63 -81 -57 -62 -61 -107 -125 -89 -90 0 0 -86
0 0 0 0 0 0 0 0 0 0 0 0 0 0 0 0 0 0 0 0 0 0 0 0 0 0 0 -66 -61 -53 -47 -31 -65 -62 -100 -90 -28 -53 -140 -115 -84 -93 -97 -99 -100
0 0 0 0 0 0 0 0 0 0 0 0 0 0 0 0 0 0 0 0 0 0 0 0 0 0 0 -97 -28 -44 -34 -43 -34 -89 -68 -98 -89 -94 -87 -104 -70 -97 -99 -93 -100
0 0 0 0 0 0 0 0 0 0 0 0 0 0 0 0 0 0 0 0 0 0 0 0 0 0 0 0 -6 -38 -24 -27 -16 -66 -74 -81 -80 -102 -73 -100 -109 -96 -117 -100 -94
0 0 0 0 0 0 0 0 0 0 0 0 0 0 0 0 0 0 0 0 0 0 0 0 0 0 0 0 0 -1 -44 -45 -54 -1 -113 -62 -54 -120 -89 -127 -121 -102 -98 -75 -86
0 0 0 0 0 0 0 0 0 0 0 0 0 0 0 0 0 0 0 0 0 0 0 0 0 0 0 0 0 0 0 0 0 -84 -77 -71 -42 -55 -111 -115 -110 -88 -79 -74 -84
0 0 0 0 0 0 0 0 0 0 0 0 0 0 0 0 0 0 0 0 0 0 0 0 0 0 0 0 0 0 0 0 0 0 -92 -53 -38 -45 -89 -116 -120 -131 -109 -109 -79
0 0 0 0 0 0 0 0 0 0 0 0 0 0 0 0 0 0 0 0 0 0 0 0 0 0 0 0 0 0 0 0 0 0 -3 -53 -8 -21 -79 -94 -134 -133 -145 -127 -135
0 0 0 0 0 0 0 0 0 0 0 0 0 0 0 0 0 0 0 0 0 0 0 0 0 0 0 0 0 0 0 0 0 -64 -42 -25 -27 -12 -27 -72 -143 -139 -159 -149 -155
0 0 0 0 0 0 0 0 0 0 0 0 0 0 0 0 0 0 0 0 0 0 0 0 0 0 0 0 0 0 0 -79 -93 -70 -7 -14 -15 0 -10 -65 -103 -113 -169 -205 -183
0 0 0 0 0 0 0 0 0 0 0 0 0 0 0 0 0 0 0 0 0 0 0 0 0 0 0 0 0 0 -2 -7 -4 -5 -13 0 -14 0 -46 -123 -136 -113 -159 -221 -248
0 0 0 0 0 0 0 0 0 0 0 0 0 0 0 0 0 0 0 0 0 0 0 0 0 0 0 0 0 0 0 -2 -3 -4 -4 0 0 0 -120 -120 -127 -183 -188 -217 -250
0 0 0 0 0 0 0 0 0 0 0 0 0 0 0 0 0 0 0 0 0 0 0 0 0 0 0 0 0 0 0 0 0 0 0 0 0 -70 -113 -106 -110 -137 -171 -208 -246
0 0 0 0 0 0 0 0 0 0 0 0 0 0 0 0 0 0 0 0 0 0 0 0 0 0 0 0 0 0 0 0 0 0 0 0 0 0 -33 -60 -105 -103 -119 -141 -206
0 0 0 0 0 0 0 0 0 0 0 0 0 0 0 0 0 0 0 0 0 0 0 0 0 0 0 0 0 0 0 0 0 0 0 0 0 0 -20 -69 -125 -98 -113 -129 -121
0 0 0 0 0 0 0 0 0 0 0 0 0 0 0 0 0 0 0 0 0 0 0 0 0 0 0 0 0 0 0 0 0 0 0 0 0 0 -80 -130 -111 -91 -125 -155 -192
0 0 0 0 0 0 0 0 0 0 0 0 0 0 0 0 0 0 0 0 0 0 0 0 0 0 0 0 0 0 0 0 0 0 0 0 0 0 -123 -108 -117 -94 -137 -161 -165
0 0 0 0 0 0 0 0 0 0 0 0 0 0 0 0 0 0 0 0 0 0 0 0 0 0 0 0 0 0 0 0 0 0 0 0 0 0 -77 -71 -84 -109 -151 -199 -198
0 0 0 0 0 0 0 0 0 0 0 0 0 0 0 0 0 0 0 0 0 0 0 0 0 0 0 0 0 0 0 0 0 0 0 0 0 0 -111 -73 -77 -110 -151 -165 -173
0 0 0 0 0 0 0 0 0 0 0 0 0 0 0 0 0 0 0 0 0 0 0 0 0 0 0 0 0 0 0 0 0 0 0 0 0 0 0 -167 -126 -96 -118 -109 -147
0 0 0 0 0 0 0 0 0 0 0 0 0 0 0 0 0 0 0 0 0 0 0 0 0 0 0 0 0 0 0 0 0 0 0 0 0 0 -132 -126 -83 -137 -143 -128 -128
Wind_Speed
16 15 14 14 14 14 15 15 16 16 17 18 18 19 20 20 21 8 15 8 11 14 13 14 13 15 16 16 17 15 20 19 11 10 12 17 17 20 18 20 20 18 19 24 22
13 13 14 14 14 14 15 15 16 17 19 20 20 21 20 21 19 12 11 11 11 13 11 15 16 15 16 16 16 12 19 19 19 16 13 11 19 20 19 20 18 18 21 24 26
12 12 11 11 11 12 12 12 13 14 15 17 19 21 21 20 12 12 10 13 13 12 10 11 13 17 15 16 17 14 14 19 17 17 11 9 15 18 16 19 18 18 22 25 25
14 14 14 14 13 13 13 12 12 12 12 12 13 17 19 13 12 13 10 12 12 11 11 12 14 16 14 15 16 13 16 17 16 19 13 12 18 17 16 17 17 19 22 24 25
17 17 17 17 16 15 14 13 13 12 11 9 9 10 13 13 12 14 11 9 7 7 9 12 10 11 13 15 16 11 11 17 15 18 17 12 11 5 17 10 17 18 23 23 24
20 19 19 18 18 18 17 16 16 14 12 9 10 12 13 13 14 13 11 8 5 4 5 8 7 8 12 12 14 16 10 19 17 17 19 19 15 10 15 14 17 20 23 24 24
24 24 23 23 23 22 21 20 18 13 8 10 12 13 12 13 14 13 12 8 5 4 3 9 11 11 12 12 13 13 14 16 16 18 18 18 16 16 9 13 17 20 22 25 25
28 28 28 27 26 26 24 21 19 7 12 13 13 13 11 12 13 13 12 10 5 5 7 12 13 13 11 10 13 11 12 13 15 16 16 17 15 18 19 18 19 18 21 23 26
31 31 32 32 32 32 29 24 21 16 14 13 14 13 12 11 10 11 12 12 10 6 7 11 12 11 10 8 12 14 14 13 15 13 13 14 13 16 17 18 19 20 20 22 26
34 34 35 36 36 33 27 17 16 16 14 13 13 13 10 9 11 10 11 12 10 9 5 8 11 11 11 8 12 13 12 16 16 10 8 11 13 14 14 16 17 18 23 24 24
36 37 37 37 37 30 21 17 18 17 14 11 13 12 11 12 11 8 7 9 8 7 4 5 4 7 11 12 15 12 12 18 18 17 12 6 12 14 12 15 19 21 22 25 25
37 38 38 38 37 25 20 17 18 18 22 11 6 9 9 12 10 7 7 5 5 3 4 4 4 10 12 14 15 14 14 18 18 16 13 15 9 16 12 16 18 18 19 24 26
38 38 38 39 32 20 20 13 19 21 21 19 11 9 8 3 9 4 5 4 5 4 2 2 10 8 7 13 15 17 18 17 21 17 17 19 21 15 9 16 19 19 21 22 26
38 37 37 38 21 26 17 15 24 17 20 16 13 11 6 6 10 4 2 4 9 5 4 8 2 6 9 12 17 25 20 21 21 20 19 16 21 21 11 5 20 20 17 23 23
36 37 35 28 22 19 16 23 19 15 22 14 11 9 4 1 10 4 4 6 6 6 5 8 4 1 7 10 12 25 18 20 21 14 16 16 20 20 16 16 20 16 19 20 24
36 36 35 19 17 14 18 20 12 15 17 14 10 5 1 3 9 8 5 8 9 9 8 5 8 7 9 12 6 11 16 17 15 15 20 17 18 17 14 14 18 7 17 20 21
36 34 22 16 16 17 18 10 15 16 17 14 11 8 2 3 3 8 3 3 6 8 11 10 6 9 7 10 9 15 15 18 19 19 21 16 16 22 21 21 22 21 19 18 20
37 34 18 13 14 17 8 9 16 16 15 16 14 12 5 6 6 5 4 3 11 13 13 11 11 3 3 8 7 9 17 23 25 23 23 19 20 17 19 20 20 18 18 17 17
36 23 18 18 14 9 7 12 17 14 15 16 14 10 8 9 10 6 5 7 8 6 13 14 12 12 10 9 7 11 19 20 20 21 23 20 22 23 19 18 16 16 15 10 9
29 21 23 21 12 10 10 13 16 12 15 14 14 13 13 12 8 6 5 13 12 8 7 14 14 10 10 10 14 15 10 24 26 29 30 23 22 18 16 15 14 14 13 12 10
22 19 19 18 15 13 15 15 15 14 15 15 13 14 13 13 11 8 10 14 11 7 4 8 14 11 9 10 7 13 19 20 20 24 30 32 28 24 16 14 13 13 14 15 11
22 19 19 20 16 16 17 15 16 17 17 16 15 14 16 17 13 13 15 13 11 8 7 9 14 18 14 17 19 18 17 21 28 23 22 24 25 17 16 15 13 13 15 16 16
23 19 18 17 19 17 17 16 16 18 18 17 17 16 15 17 18 18 18 17 20 12 9 8 15 15 11 10 13 17 15 18 20 23 28 29 24 17 16 15 15 15 15 15 15
22 21 19 18 17 18 19 18 17 17 16 17 18 19 20 21 21 23 22 20 19 22 19 7 17 20 18 16 14 18 17 16 21 25 26 30 29 22 17 17 13 13 15 15 14
22 21 19 21 18 19 18 18 18 19 18 18 18 16 19 23 23 27 29 29 24 19 20 19 24 20 18 14 15 14 13 16 22 23 26 25 24 23 12 11 13 13 14 14 14
22 21 20 20 19 19 17 18 19 19 20 21 22 21 23 23 24 29 27 26 25 21 21 23 20 17 19 16 17 18 19 21 26 25 27 26 26 21 17 15 14 13 14 15 15
20 18 19 19 19 19 19 18 17 22 21 22 24 28 29 30 27 27 32 38 38 31 25 24 16 18 22 19 20 27 26 25 26 26 26 24 23 16 14 13 14 14 15 14 15
Wind_Direction
308 299 292 287 280 275 274 272 271 270 268 268 265 266 261 257 253 72 163 79 101 102 80 79 57 72 66 67 59 115 56 75 234 247 37 122 101 124 138 83 125 134 129 120 105
292 290 290 286 281 275 269 265 267 271 275 277 278 276 274 280 310 155 123 103 93 98 72 103 105 92 92 88 103 189 43 76 120 108 32 323 120 114 109 98 135 123 102 107 116
294 289 282 277 271 265 259 253 247 246 248 257 266 279 295 316 18 16 63 116 113 102 65 69 75 127 106 81 94 320 326 88 86 68 2 40 76 109 76 123 144 116 105 119 122
297 294 291 286 278 272 264 253 247 240 231 226 228 257 327 22 28 13 36 103 103 93 78 89 101 122 95 101 119 238 72 104 79 107 236 86 115 121 109 151 159 107 112 120 129
306 302 297 290 285 277 267 256 248 237 222 200 171 131 90 88 77 353 63 84 69 75 94 106 80 64 65 74 80 171 284 120 94 141 150 51 59 63 134 48 91 87 116 125 130
308 303 297 291 287 281 275 267 256 238 218 182 136 95 83 73 66 50 70 82 60 12 65 79 11 19 354 24 83 90 342 123 51 103 143 127 86 71 129 99 101 109 123 133 136
314 310 305 300 295 288 280 273 261 227 155 100 88 81 81 72 64 70 80 79 55 15 30 294 315 330 343 7 24 59 42 56 47 84 146 127 118 130 22 95 114 120 129 141 148
318 315 312 306 300 294 286 273 261 77 44 45 53 51 68 67 68 78 80 69 48 345 321 293 305 307 331 14 354 2 352 11 67 104 132 132 109 150 132 118 127 125 135 146 158
319 317 315 312 309 306 299 311 347 20 28 43 24 29 28 49 61 90 93 83 87 67 320 302 309 311 318 334 329 319 309 322 313 96 46 107 118 170 136 140 142 143 142 152 169
323 321 319 317 315 315 326 1 15 12 11 11 3 4 23 37 35 69 95 85 72 82 14 316 300 297 301 308 312 322 312 307 314 26 54 119 167 16 128 142 150 150 165 166 167
323 321 318 318 318 320 344 349 344 345 349 348 355 351 5 9 25 39 75 88 58 65 91 333 297 272 284 293 303 325 317 295 307 325 339 106 166 165 129 144 158 166 168 175 177
323 320 320 318 319 327 344 342 348 343 329 340 316 314 327 343 359 18 91 53 46 50 34 348 240 286 294 291 292 302 306 296 311 329 336 324 5 181 142 161 164 162 166 177 185
321 322 322 319 322 341 335 342 341 340 329 327 328 316 315 332 337 15 119 21 358 355 16 282 329 294 276 284 284 286 287 297 299 321 313 304 302 326 140 166 173 175 180 182 187
318 320 324 317 342 334 339 345 327 340 331 333 329 325 326 335 323 349 104 351 331 324 344 325 317 330 289 277 275 271 279 289 299 304 298 309 285 286 333 110 179 178 172 184 182
310 314 322 337 340 347 341 325 337 347 325 346 345 345 340 29 344 312 319 326 327 325 329 335 348 284 308 277 267 267 282 288 294 303 301 304 297 292 311 301 185 171 177 180 180
306 305 321 355 355 356 337 332 5 343 325 341 351 344 50 313 342 334 311 321 326 329 318 307 349 343 318 305 208 266 279 293 295 295 288 297 296 301 293 310 290 84 173 177 174
302 295 348 356 352 346 340 7 334 323 340 337 335 333 272 309 307 334 293 273 304 313 299 303 304 318 322 311 278 264 265 270 270 278 281 299 296 272 276 269 260 234 191 168 172
303 313 358 9 359 347 10 345 318 333 323 336 333 317 287 309 302 304 334 287 292 300 310 291 294 299 330 301 283 247 257 262 264 271 275 287 284 292 277 276 272 249 197 149 153
318 353 3 358 0 10 348 309 318 320 334 323 326 317 302 304 308 291 289 298 289 262 290 295 288 297 297 303 293 267 261 274 277 279 277 281 278 274 277 283 287 292 292 339 100
344 353 354 0 23 6 327 309 317 334 334 330 312 323 304 301 286 288 307 311 293 267 268 298 287 290 293 294 290 276 281 270 269 264 263 273 275 280 279 284 291 302 316 333 17
352 351 359 13 8 351 323 315 317 327 330 322 316 311 309 303 302 298 302 298 308 315 224 278 292 293 288 280 263 276 273 277 277 268 259 260 267 271 278 284 294 312 327 332 2
349 345 354 359 347 339 329 329 326 319 320 315 313 306 298 298 296 294 286 286 314 294 264 265 289 281 293 283 270 274 276 271 261 267 269 268 267 283 273 282 298 313 324 330 330
346 345 357 354 334 335 335 332 329 320 317 310 300 301 300 295 292 285 284 286 285 284 263 247 271 280 294 300 278 272 281 278 269 265 258 256 265 286 278 282 290 303 319 328 335
345 338 343 350 345 334 328 327 324 325 321 318 305 297 290 284 283 281 277 280 287 270 265 235 269 270 270 276 276 275 276 278 267 262 262 254 261 276 278 280 293 305 313 322 331
347 339 341 332 335 334 332 329 324 319 320 314 307 301 295 282 278 271 271 271 271 270 265 259 263 269 272 282 281 290 280 274 270 269 263 270 273 277 287 288 292 306 315 320 326
339 338 338 331 332 329 327 324 320 316 313 305 298 294 290 282 274 269 270 263 264 264 259 256 260 262 262 273 280 280 277 273 265 269 265 271 274 284 287 291 297 304 311 313 317
347 346 337 331 331 328 326 326 324 320 312 300 295 289 281 276 276 271 264 253 250 257 254 253 254 258 260 268 277 272 275 278 277 274 273 276 282 291 292 295 299 305 310 316 317